Juan de Fuca Strait - central strait: Past 24 Hour Conditions

 

Race Rocks Lightstation

02:00 PM PST 28 November 2014
This table is a summary of hourly weather conditions for the past 24 hours.
Date / Time
(PST)
Wind(knots) Conditions Visibility(km) Pressure(kPa) Air tempC) Relative humidity(%) Dew pointC)
28 November 2014
14:00 WNW 11 N/A N/A 99.8 7 73 2
13:00 WNW 13 N/A N/A 99.9 7 77 3
12:00 WSW 18 N/A N/A 99.9 8 70 3
11:00 WSW 18 gust 23 N/A N/A 99.9 8 75 4
10:00 SW 19 N/A N/A 100.0 8 72 3
9:00 WSW 21 N/A N/A 100.0 8 78 5
8:00 WSW 23 N/A N/A 100.0 8 82 5
7:00 W 23 N/A N/A 100.0 8 74 4
6:00 WSW 29 N/A N/A 99.9 9 84 6
5:00 W 32 gust 39 N/A N/A 100.0 9 90 7
4:00 W 32 N/A N/A 100.0 9 89 7
3:00 W 26 gust 35 N/A N/A 100.0 10 89 8
2:00 WSW 31 N/A N/A 99.9 14 80 10
1:00 SW 17 N/A N/A 100.1 12 88 11
0:00 W 25 N/A N/A 100.1 12 91 11
27 November 2014
23:00 WSW 19 gust 28 N/A N/A 100.1 12 87 10
22:00 W 26 gust 31 N/A N/A 100.2 12 86 10
21:00 WSW 18 N/A N/A 100.2 12 90 11
20:00 W 19 N/A N/A 100.3 13 87 11
19:00 W 20 N/A N/A 100.3 13 89 11
18:00 WSW 21 N/A N/A 100.4 13 87 11
17:00 WSW 17 N/A N/A 100.4 13 93 11
16:00 W 9 N/A N/A 100.5 12 90 11
15:00 SW 7 N/A N/A 100.5 13 89 11
14:00 WSW 10 N/A N/A 100.6 13 92 11
 
Map of Pacific - South Coast marine weather areas Tsawwassen Ferry Terminal South Nomad - 46036 Sentry Shoal - 46131 South Brooks - 46132 Halibut Bank - 46146 South Moresby - 46147 South Hecate Strait - 46185 West Sea Otter - 46204 La Perouse Bank - 46206 East Dellwood - 46207 Discovery Island Esquimalt Harbour Kelp Reefs Malahat Race Rocks Lightstation Saturna Island Sheringham Point University of Victoria Victoria Gonzales Victoria Int'l Airport Ballenas Islands Campbell River Airport Comox Airport Entrance Island Fanny Island Nanaimo Airport Port Hardy Airport Sisters Islets Estevan Point Sartine Island Solander Island Tofino Airport Grief Point Powell River Airport Sechelt Cape St.James Bella Bella Airport Bella Coola Airport Cathedral Point Herbert Island Point Atkinson Sand Heads Lightstation Vancouver Harbour Vancouver Int'l Airport West Vancouver Port Alberni Howe Sound - Pam Rocks Squamish Airport